Location: Bidart
(43.4376°N, 1.5913°W)
Time: 11:33:00
(UTC+00:00)

USA 229 DEB - Pass Details

Date: 17 April 2026
Orbit: 844 x 1364 km, 63.4° (Epoch: 10 January)

Event Time Altitude Azimuth Distance (km) Brightness Sun altitude
Rises 21:21:32 0° 308° (NW) 3,744 8.0 -24.2°
Reaches altitude 10° 21:25:32 10° 332° (NNW) 2,905 6.9 -24.7°
Maximum altitude 21:29:12 15° 5° (N) 2,672 6.3 -25.2°
Drops below altitude 10° 21:33:04 10° 37° (NE) 3,111 6.2 -25.6°
Sets 21:37:38 0° 60° (ENE) 4,188 6.7 -26.2°
